N7KEB Weather Reports


Display with metric or nautical units.
time (UTC)temp
F
wind
direction
speed
MPH
gust
MPH
rain 1hr
in
rain 24hr
in
rain mn
in
humidity
%
barometer
mb
20260503040057 68 313 6.0 11.0 0.00 0.00 0.00 34 1014.6
20260503034548 68 263 7.0 14.0 0.00 0.00 0.00 34 1014.1
20260503033046 68 257 8.0 17.0 0.00 0.00 0.00 36 1013.8
20260503031546 68 248 6.0 14.0 0.00 0.00 0.00 35 1013.6
20260503030043 67 217 9.0 13.0 0.00 0.00 0.00 38 1013.6
20260503024541 68 254 4.0 13.0 0.00 0.00 0.00 35 1013.4
20260503023057 68 300 6.0 16.0 0.00 0.00 0.00 36 1013.3
20260503021554 69 322 9.0 18.0 0.00 0.00 0.00 36 1013.0
20260503020055 70 315 8.0 15.0 0.00 0.00 0.00 33 1013.0
20260503014544 71 334 4.0 14.0 0.00 0.00 0.00 32 1013.3
20260503013051 71 281 10.0 15.0 0.00 0.00 0.00 32 1013.3
20260503011539 73 239 6.0 12.0 0.00 0.00 0.00 31 1013.2
20260503010048 73 253 2.0 5.0 0.00 0.00 0.00 28 1013.2
20260503004556 73 232 6.0 11.0 0.00 0.00 0.00 27 1013.2
20260503003110 74 234 9.0 12.0 0.00 0.00 0.00 27 1013.2
20260503001600 74 220 4.0 10.0 0.00 0.00 0.00 27 1013.2
20260503000047 74 0 1.0 12.0 0.00 0.00 0.00 26 1013.1
20260502234545 75 227 9.0 16.0 0.00 0.00 0.00 26 1013.2
20260502233044 75 155 7.0 15.0 0.00 0.00 0.00 26 1013.4
20260502231541 75 216 6.0 18.0 0.00 0.00 0.00 26 1013.4
20260502230051 75 174 10.0 23.0 0.00 0.00 0.00 26 1013.7
20260502224549 75 214 5.0 23.0 0.00 0.00 0.00 25 1013.6
20260502223046 75 236 8.0 21.0 0.00 0.00 0.00 25 1014.0
20260502221546 76 323 3.0 10.0 0.00 0.00 0.00 24 1013.8
20260502220049 76 25 4.0 9.0 0.00 0.00 0.00 24 1014.0
20260502214546 77 331 3.0 10.0 0.00 0.00 0.00 23 1014.0
20260502213100 78 309 8.0 14.0 0.00 0.00 0.00 23 1014.0
20260502211543 77 285 6.0 11.0 0.00 0.00 0.00 23 1014.3
20260502210051 78 5 5.0 12.0 0.00 0.00 0.00 23 1014.4
20260502204547 79 159 2.0 9.0 0.00 0.00 0.00 23 1014.7
20260502203050 78 329 3.0 9.0 0.00 0.00 0.00 23 1014.9
20260502201544 76 312 3.0 12.0 0.00 0.00 0.00 23 1015.1
20260502200107 78 170 4.0 8.0 0.00 0.00 0.00 23 1015.2
20260502194603 76 159 4.0 11.0 0.00 0.00 0.00 24 1015.3
20260502193047 76 141 2.0 11.0 0.00 0.00 0.00 23 1015.6
20260502191551 76 0 6.0 13.0 0.00 0.00 0.00 23 1015.8
20260502190045 75 114 4.0 11.0 0.00 0.00 0.00 22 1016.0
20260502184540 73 146 7.0 11.0 0.00 0.00 0.00 23 1016.3
20260502183052 73 102 5.0 10.0 0.00 0.00 0.00 22 1016.7
20260502181548 73 173 3.0 9.0 0.00 0.00 0.00 22 1016.7
20260502163051 67 145 4.0 8.0 0.00 0.00 0.00 19 1016.8
20260502161549 66 154 3.0 6.0 0.00 0.00 0.00 27 1016.8
20260502151559 59 0 0.0 2.0 0.00 0.00 0.00 38 1016.6
20260502150118 56 360 0.0 1.0 0.00 0.00 0.00 41 1016.6
20260502123045 43 355 2.0 4.0 0.00 0.00 0.00 48 1015.7
20260502121557 42 282 2.0 4.0 0.00 0.00 0.00 51 1015.6
20260502120110 42 304 1.0 3.0 0.00 0.00 0.00 48 1015.6
20260502114548 42 0 0.0 3.0 0.00 0.00 0.00 48 1015.6
20260502113109 42 296 3.0 9.0 0.00 0.00 0.00 48 1015.7
20260502111548 42 301 2.0 5.0 0.00 0.00 0.00 48 1015.6
20260502110057 41 0 0.0 3.0 0.00 0.00 0.00 50 1015.5
20260502104549 42 197 0.0 1.0 0.00 0.00 0.00 48 1015.6
20260502103108 43 197 1.0 2.0 0.00 0.00 0.00 47 1015.5
20260502101549 44 0 0.0 2.0 0.00 0.00 0.00 46 1015.5
20260502070050 51 0 0.0 2.0 0.00 0.00 0.00 37 1016.5
20260502064548 52 332 1.0 4.0 0.00 0.00 0.00 37 1016.2
20260502063104 50 303 2.0 3.0 0.00 0.00 0.00 44 1016.3
20260502061550 53 272 1.0 3.0 0.00 0.00 0.00 38 1016.2
20260502060042 52 0 0.0 1.0 0.00 0.00 0.00 48 1016.4
20260502054554 52 272 0.0 2.0 0.00 0.00 0.00 43 1016.4
20260502053051 53 0 0.0 2.0 0.00 0.00 0.00 41 1016.2
20260502051549 54 272 2.0 3.0 0.00 0.00 0.00 36 1016.3
20260502050049 56 19 0.0 1.0 0.00 0.00 0.00 33 1016.3
20260502044542 58 0 0.0 1.0 0.00 0.00 0.00 32 1016.2
20260502043043 60 19 1.0 2.0 0.00 0.00 0.00 30 1016.1
20260502041549 61 19 1.0 3.0 0.00 0.00 0.00 28 1016.0